OPTUS D2

Last updated on Sun Oct 06 2024 00:02:38 GMT+0000 (Coordinated Universal Time)

1 32252U 07044A 24279.58313244 -.00000098 00000+0 00000+0 0 9999 2 32252 0.4616 89.9435 0005018 122.1883 172.6667 1.00272651 62355
UTC large
Height (km)
Speed (km/s)
/
Latitude / Longitude
Inclination (degrees)
Orbital Period (minutes)
Azimuth
Elevation
Range (km)
Doppler Factor

Next 0 passes for location: London (51.5072 / 0.1276)

Sorry there are no passes over London.